FENGYUN 1C DEB

Satellite information

Favourite Embed

Satellite Type and Status

DEBRISIN ORBIT

Key statistics

Satellite FENGYUN 1C DEB at a glance.

Uptime

9497

Days in orbit

Revolutions

≈ 14.3

Per day

Orbit

SSO

Sun Synchronous Orbit

Inclination

98.7

Latest

Satellite identification and parameters

Extended collection of information and parameters for FENGYUN 1C DEB.

Object identification

Identified? True

Debris? True

Object name: FENGYUN 1C DEB

International designator: 1999-025EBR

Object number (NORAD): 36743

Object ID (CCSDS): 36743

Country: PEOPLES REPUBLIC OF CHINA (PRC)

Current information (Y/N): Y

RCS size: SMALL

Orbital parameters

Period: 100.873 minutes

Inclination: 98.6699 deg

SMA: 7178.103 km

Apoapsis: 834.026 km

Periapsis: 765.91 km

RAAN: 172.2877 deg

Eccentricy: 0.0047447

Argument of periapsis: 308.4642 deg

Mean anomaly: 51.2286 deg

Mean motion: 14.27539784 rev/day

Mean motion (dot): 0.0000493 rev/day2

B* drag term: 0.0019981 1/REarth

Two-line elements (TLE)

Creation date: May 4, 2025, 2:56 p.m.

Reference frame: TEME

Reference center: EARTH

Epoch: May 2, 2025, 7:45 a.m. UTC

TLE line 0: 0 FENGYUN 1C DEB

TLE line 1: 1 36743U 99025EBR 25122.32298726 .00004930 00000-0 19981-2 0 9995

TLE line 2: 2 36743 98.6699 172.2877 0047447 308.4642 51.2286 14.27539784859050

Live tracking on map

Real-time ground track for satellite FENGYUN 1C DEB.

In-orbit conjunctions

A list of the most updated potential collisions computed for object FENGYUN 1C DEB.

Target Orbit TCA Probability of collision Miss distance Type
COSMOS 2251 DEB LEO 2025-04-23 01:28:37 0.0001212482 188.0 (m) DEBRIS

Associated space launch

Chinese polar orbiting meteorological satellite

FENGYUN 1C DEB was lifted into orbit during the mission ‘Long March 4B | Feng Yun 1C’, on board a Long March 4B space rocket.

The launch took place on May 10, 1999, 1:33 a.m. from Launch Complex 7.

For more information about the launch, click the button.

Launch to space Long March 4B | Feng Yun 1C
Long March 4B | Feng Yun 1C

Agency: N/A

Status: Launch Successful

Launch date: May 10, 1999, 1:33 a.m. UTC

Rocket: Long March 4B

Launch pad: Launch Complex 7

Location: Taiyuan Satellite Launch Center, People's Republic of China

...

Latest news about this satellite

There are no fresh news available about this satellite. Check back as we update our databases every day.


Newsletter sign-up

Weekly statistics, charts and insights to help you stay on top of the space industry.